sat.trackr.live / text

‹ back to catalog

STARLINK-3888

NORAD 52454 · 2022-049D

PAYLOAD ACTIVE UNKNOWN

§ Identity

Operator
Country
US
Launch date
2022-05-06
Launch site
AFETR
Launch vehicle
Mass (kg)
RCS (m²)

Purposes: comms

External: N2YO · Heavens-Above · Gunter

§ Orbital elements

Epoch: 2026-09-20T01:05:30.621120Z

Period
93.79 min
Inclination
53.1596°
Eccentricity
0.0001288
Mean motion
15.35404476 rev/d
Perigee alt
458.8 km
Apogee alt
460.6 km
Semi-major
6,837.9 km
B*
2.7321e-5
RAAN
271.6435°
Arg perigee
75.1047°
Mean anomaly
285.0098°
Rev number
24,151

§ Raw data

STARLINK-38881 52454U 22049D   26263.04549330  .00000573  00000+0  27321-4 0  99972 52454  53.1596 271.6435 0001288  75.1047 285.0098 15.35404476241516

JSON: /api/v1/satellites/52454 · /tle

For live sub-satellite position, see the globe view (requires WebGL).

§ Visibility from observer

Set your observer location to see the next 7 days of passes ≥ 10°. The values pass through the URL so the page stays shareable.

No JS? Fill the form by hand. The geolocation button needs JavaScript.